Location: Squirrel Cove
(50.1074°N, 124.9139°W)
Time: 00:19:37
(UTC-08:00)

BlueWalker 3 - Pass Details

Date: 03 December 2022
Orbit: 499 x 517 km, 53.2° (Epoch: 29 January)

Event Time Altitude Azimuth Distance (km) Brightness Sun altitude
Rises 17:06:13 0° 269° (W) 2,633 7.0 -7.3°
Reaches altitude 10° 17:08:27 10° 274° (W) 1,744 5.8 -7.7°
Maximum altitude 17:12:20 55° 353° (N) 620 2.3 -8.2°
Enters shadow 17:15:57 12° 71° (ENE) 1,633 3.9 -8.7°
